Year,Month,Day,Hour,Minute,Value (Times are PST for temperature in C)
2017,05,27,04,28,11.80
2017,05,27,04,29,11.80
2017,05,27,04,30,11.80
2017,05,27,04,31,11.80
2017,05,27,04,32,11.80
2017,05,27,04,33,11.80
2017,05,27,04,34,11.80
2017,05,27,04,35,11.80
2017,05,27,04,36,11.80
2017,05,27,04,37,11.80
2017,05,27,04,38,11.70
2017,05,27,04,39,11.70
2017,05,27,04,40,11.80
2017,05,27,04,41,11.80
2017,05,27,04,42,11.80
2017,05,27,04,43,11.80
2017,05,27,04,44,11.80
2017,05,27,04,45,11.80
2017,05,27,04,46,11.80
2017,05,27,04,47,11.80
2017,05,27,04,48,11.80
2017,05,27,04,49,11.80
2017,05,27,04,50,11.80
2017,05,27,04,51,11.80
2017,05,27,04,52,11.80
2017,05,27,04,53,11.90
2017,05,27,04,54,11.90
2017,05,27,04,55,11.90
2017,05,27,04,56,11.90
2017,05,27,04,57,11.90
2017,05,27,04,58,11.90
2017,05,27,04,59,11.90
2017,05,27,05,00,11.90
2017,05,27,05,01,11.90
2017,05,27,05,02,11.90
2017,05,27,05,03,11.90
2017,05,27,05,04,11.90
2017,05,27,05,05,11.90
2017,05,27,05,06,11.90
2017,05,27,05,07,11.90
2017,05,27,05,08,11.90
2017,05,27,05,09,11.90
2017,05,27,05,10,11.90
2017,05,27,05,11,11.90
2017,05,27,05,12,11.90
2017,05,27,05,13,11.90
2017,05,27,05,14,11.90
2017,05,27,05,15,11.90
2017,05,27,05,16,11.90
2017,05,27,05,17,11.90
2017,05,27,05,18,11.90
2017,05,27,05,19,11.90
2017,05,27,05,20,11.90
2017,05,27,05,21,11.90
2017,05,27,05,22,11.90
2017,05,27,05,23,11.90
2017,05,27,05,24,11.90
2017,05,27,05,25,11.80
2017,05,27,05,26,11.80
2017,05,27,05,27,11.80
2017,05,27,05,28,11.90
2017,05,27,05,29,11.90
2017,05,27,05,30,11.90
2017,05,27,05,31,11.80
2017,05,27,05,32,11.90
2017,05,27,05,33,11.90
2017,05,27,05,34,11.90
2017,05,27,05,35,11.90
2017,05,27,05,36,11.90
2017,05,27,05,37,11.90
2017,05,27,05,38,11.90
2017,05,27,05,39,11.90
2017,05,27,05,40,11.90
2017,05,27,05,41,11.90
2017,05,27,05,42,11.90
2017,05,27,05,43,11.90
2017,05,27,05,44,11.90
2017,05,27,05,45,11.90
2017,05,27,05,46,11.90
2017,05,27,05,47,11.90
2017,05,27,05,48,11.90
2017,05,27,05,49,11.90
2017,05,27,05,50,11.90
2017,05,27,05,51,11.90
2017,05,27,05,52,11.90
2017,05,27,05,53,11.90
2017,05,27,05,54,11.90
2017,05,27,05,55,11.90
2017,05,27,08,44,18.40
2017,05,27,08,45,18.50
2017,05,27,08,46,18.60
2017,05,27,08,47,18.70
2017,05,27,08,48,18.70
2017,05,27,08,49,18.70
2017,05,27,08,50,18.70
2017,05,27,08,51,18.70
2017,05,27,08,52,18.70
2017,05,27,08,53,18.70
2017,05,27,08,54,18.70
2017,05,27,08,55,18.70
2017,05,27,08,56,18.70
2017,05,27,08,57,18.70
2017,05,27,08,58,18.60
2017,05,27,08,59,18.60
2017,05,27,09,00,18.60
2017,05,27,09,01,18.70
2017,05,27,09,02,18.70
2017,05,27,09,03,18.70
2017,05,27,09,04,18.70
2017,05,27,09,05,18.80
2017,05,27,09,06,18.80
2017,05,27,09,07,18.80
2017,05,27,09,08,18.80
2017,05,27,09,09,18.80
2017,05,27,09,10,18.80
2017,05,27,09,11,18.80
2017,05,27,09,12,18.80
2017,05,27,09,13,18.80
2017,05,27,09,14,18.80
2017,05,27,09,15,18.90
2017,05,27,09,16,18.90
2017,05,27,09,17,18.90
2017,05,27,09,18,18.90
2017,05,27,09,19,18.90
2017,05,27,09,20,18.90
2017,05,27,09,21,19.00
2017,05,27,09,22,19.00
2017,05,27,09,23,19.10
2017,05,27,09,24,19.20
2017,05,27,09,25,19.20
2017,05,27,09,26,19.30
2017,05,27,09,27,19.30
2017,05,27,09,28,19.30
2017,05,27,09,29,19.30
2017,05,27,09,30,19.30
2017,05,27,09,31,19.30
2017,05,27,09,32,19.30
2017,05,27,09,33,19.40
2017,05,27,09,34,19.40
2017,05,27,09,35,19.40
2017,05,27,09,36,19.50
2017,05,27,09,37,19.50
2017,05,27,09,38,19.50
2017,05,27,09,39,19.50
2017,05,27,09,40,19.60
2017,05,27,09,41,19.60
2017,05,27,09,42,19.60
2017,05,27,09,43,19.70
2017,05,27,09,44,19.70
2017,05,27,09,45,19.80
2017,05,27,09,46,19.80
2017,05,27,09,47,19.90
2017,05,27,09,48,19.90
2017,05,27,09,49,19.90
2017,05,27,09,50,19.90
2017,05,27,09,51,19.80
2017,05,27,09,52,19.80
2017,05,27,09,53,19.80
2017,05,27,09,54,19.80
2017,05,27,09,55,19.90
2017,05,27,09,56,20.00
2017,05,27,09,57,20.00
2017,05,27,09,58,20.10
2017,05,27,09,59,20.20
2017,05,27,10,00,20.20
2017,05,27,10,01,20.20
2017,05,27,10,02,20.10
2017,05,27,10,03,20.10
2017,05,27,10,04,20.10
2017,05,27,10,05,20.10
2017,05,27,10,06,20.10
2017,05,27,10,07,20.20
2017,05,27,10,08,20.20
2017,05,27,10,09,20.30
2017,05,27,10,10,20.30
2017,05,27,10,11,20.30
2017,05,27,10,12,20.30
2017,05,27,10,13,20.30
2017,05,27,10,14,20.30
2017,05,27,10,15,20.30
2017,05,27,10,16,20.30
2017,05,27,10,17,20.30
2017,05,27,10,18,20.30
2017,05,27,10,19,20.30
2017,05,27,10,20,20.30
2017,05,27,10,21,20.30
2017,05,27,10,22,20.30
2017,05,27,10,23,20.30
2017,05,27,10,24,20.30
2017,05,27,10,25,20.30
2017,05,27,10,26,20.30
2017,05,27,10,27,20.40
2017,05,27,10,28,20.40
2017,05,27,10,29,20.40
2017,05,27,10,30,20.50
2017,05,27,10,31,20.50
2017,05,27,10,32,20.50
2017,05,27,10,33,20.50
2017,05,27,10,34,20.60
2017,05,27,10,35,20.60
2017,05,27,10,36,20.60
2017,05,27,10,37,20.60
2017,05,27,10,38,20.70
2017,05,27,10,39,20.70
2017,05,27,10,40,20.60
2017,05,27,10,41,20.60
2017,05,27,10,42,20.60
2017,05,27,10,43,20.60
2017,05,27,10,44,20.60
2017,05,27,10,45,20.70
2017,05,27,10,46,20.70
2017,05,27,10,47,20.70
2017,05,27,10,48,20.80
2017,05,27,10,49,20.80
2017,05,27,10,50,20.80
2017,05,27,10,51,20.90
2017,05,27,10,52,20.90
2017,05,27,10,53,21.00
2017,05,27,10,54,21.00
2017,05,27,10,55,21.00
2017,05,27,10,56,21.00
2017,05,27,10,57,21.00
2017,05,27,10,58,21.00
2017,05,27,10,59,21.00
2017,05,27,11,00,21.00
2017,05,27,11,01,21.00
2017,05,27,11,02,21.10
2017,05,27,11,03,21.20
2017,05,27,11,04,21.20
2017,05,27,11,05,21.30
2017,05,27,11,06,21.20
2017,05,27,11,07,21.20
2017,05,27,11,08,21.20
2017,05,27,11,09,21.20
2017,05,27,11,10,21.20
2017,05,27,11,11,21.20
2017,05,27,11,12,21.20
2017,05,27,11,13,21.20
2017,05,27,11,14,21.30
2017,05,27,11,15,21.30
2017,05,27,11,16,21.30
2017,05,27,11,17,21.40
2017,05,27,11,18,21.40
2017,05,27,11,19,21.40
2017,05,27,11,20,21.40
2017,05,27,11,21,21.40
2017,05,27,11,22,21.40
2017,05,27,11,23,21.40
2017,05,27,11,24,21.40
2017,05,27,11,25,21.50
2017,05,27,11,26,21.50
2017,05,27,11,27,21.50
2017,05,27,11,28,21.50
2017,05,27,11,29,21.50
2017,05,27,11,30,21.50
2017,05,27,11,31,21.50
2017,05,27,11,32,21.50
2017,05,27,11,33,21.50
2017,05,27,11,34,21.50
2017,05,27,11,35,21.50
2017,05,27,11,36,21.60
2017,05,27,11,37,21.60
2017,05,27,11,38,21.60
2017,05,27,11,39,21.60
2017,05,27,11,40,21.50
2017,05,27,11,41,21.50
2017,05,27,11,42,21.50
2017,05,27,11,43,21.50
2017,05,27,11,44,21.50
2017,05,27,11,45,21.40
2017,05,27,11,46,21.40
2017,05,27,11,47,21.40
2017,05,27,11,48,21.40
2017,05,27,11,49,21.50
2017,05,27,11,50,21.60
2017,05,27,11,51,21.60
2017,05,27,11,52,21.60
2017,05,27,11,53,21.70
2017,05,27,11,54,21.70
2017,05,27,11,55,21.60
2017,05,27,11,56,21.60
2017,05,27,11,57,21.60
2017,05,27,11,58,21.70
2017,05,27,11,59,21.70
2017,05,27,12,00,21.70
2017,05,27,12,01,21.70
2017,05,27,12,02,21.70
2017,05,27,12,03,21.70
2017,05,27,12,04,21.70
2017,05,27,12,05,21.70
2017,05,27,12,06,21.80
2017,05,27,12,07,21.80
2017,05,27,12,08,21.90
2017,05,27,12,09,21.90
2017,05,27,12,10,21.90
2017,05,27,12,11,21.90
2017,05,27,12,12,21.90
2017,05,27,12,13,21.80
2017,05,27,12,14,21.80
2017,05,27,12,15,21.80
2017,05,27,12,16,21.80
2017,05,27,12,17,21.90
2017,05,27,12,18,21.90
2017,05,27,12,19,22.00
2017,05,27,12,20,22.10
2017,05,27,12,21,22.10
2017,05,27,12,22,22.20
2017,05,27,12,23,22.20
2017,05,27,12,24,22.30
2017,05,27,12,25,22.50
2017,05,27,12,26,22.60
2017,05,27,12,27,22.70
2017,05,27,12,28,22.70
2017,05,27,12,29,22.70
2017,05,27,12,30,22.70
2017,05,27,12,31,22.80
2017,05,27,12,32,22.80
2017,05,27,12,33,22.80
2017,05,27,12,34,22.90
2017,05,27,12,35,22.90
2017,05,27,12,36,23.00
2017,05,27,12,37,23.00
2017,05,27,12,38,23.10
2017,05,27,12,39,23.00
2017,05,27,12,40,23.00
2017,05,27,12,41,23.00
2017,05,27,12,42,23.00
2017,05,27,12,43,22.90
2017,05,27,12,44,22.80
2017,05,27,12,45,22.70
2017,05,27,12,46,22.70
2017,05,27,12,47,22.70
2017,05,27,12,48,22.70
2017,05,27,12,49,22.80
2017,05,27,12,50,22.80
2017,05,27,12,51,22.90
2017,05,27,12,52,22.90
2017,05,27,12,53,22.90
2017,05,27,12,54,22.90
2017,05,27,12,55,23.00
2017,05,27,12,56,23.00
2017,05,27,12,57,23.10
2017,05,27,12,58,23.10
2017,05,27,12,59,23.10
2017,05,27,13,00,23.10
2017,05,27,13,01,23.10
2017,05,27,13,02,23.10
2017,05,27,13,03,23.10
2017,05,27,13,04,23.10
2017,05,27,13,05,23.20
2017,05,27,13,06,23.20
2017,05,27,13,07,23.30
2017,05,27,13,08,23.40
2017,05,27,13,09,23.40
2017,05,27,13,10,23.50
2017,05,27,13,11,23.50
2017,05,27,13,12,23.60
2017,05,27,13,13,23.60
2017,05,27,13,14,23.60
2017,05,27,13,15,23.60
2017,05,27,13,16,23.50
2017,05,27,13,17,23.40
2017,05,27,13,18,23.30
2017,05,27,13,19,23.20
2017,05,27,13,20,23.10
2017,05,27,13,21,23.00
2017,05,27,13,22,23.00
2017,05,27,13,23,23.00
2017,05,27,13,24,23.10
2017,05,27,13,25,23.10
2017,05,27,13,26,23.20
2017,05,27,13,27,23.20
2017,05,27,13,28,23.20
2017,05,27,13,29,23.20
2017,05,27,13,30,23.20
2017,05,27,13,31,23.20
2017,05,27,13,32,23.30
2017,05,27,13,33,23.30
2017,05,27,13,34,23.30
2017,05,27,13,35,23.30
2017,05,27,13,36,23.20
2017,05,27,13,37,23.20
2017,05,27,13,38,23.10
2017,05,27,13,39,23.10
2017,05,27,13,40,23.10
2017,05,27,13,41,23.10
2017,05,27,13,42,23.10
2017,05,27,13,43,23.10
2017,05,27,13,44,23.10
2017,05,27,13,45,23.10
2017,05,27,13,46,23.00
2017,05,27,13,47,23.10
2017,05,27,13,48,23.10
2017,05,27,13,49,23.10
2017,05,27,13,50,23.20
2017,05,27,13,51,23.20
2017,05,27,13,52,23.20
2017,05,27,13,53,23.20
2017,05,27,13,54,23.30
2017,05,27,13,55,23.30
2017,05,27,13,56,23.40
2017,05,27,13,57,23.40
2017,05,27,13,58,23.50
2017,05,27,13,59,23.50
2017,05,27,14,00,23.60
2017,05,27,14,01,23.60
2017,05,27,14,02,23.70
2017,05,27,14,03,23.80
2017,05,27,14,04,23.80
2017,05,27,14,05,23.90
2017,05,27,14,06,23.90
2017,05,27,14,07,23.90
2017,05,27,14,08,23.90
2017,05,27,14,09,23.90
2017,05,27,14,10,24.00
2017,05,27,14,11,24.00
2017,05,27,14,12,24.00
2017,05,27,14,13,24.00
2017,05,27,14,14,24.00
2017,05,27,14,15,24.00
2017,05,27,14,16,24.00
2017,05,27,14,17,24.00
2017,05,27,14,18,24.10
2017,05,27,14,19,24.10
2017,05,27,14,20,24.20
2017,05,27,14,21,24.20
2017,05,27,14,22,24.20
2017,05,27,14,23,24.20
2017,05,27,14,24,24.20
2017,05,27,14,25,24.20
2017,05,27,14,26,24.20
2017,05,27,14,27,24.20
2017,05,27,14,28,24.20
2017,05,27,14,29,24.10
2017,05,27,14,30,23.90
2017,05,27,14,31,23.80
2017,05,27,14,32,23.80
2017,05,27,14,33,23.70
2017,05,27,14,34,23.60
2017,05,27,14,35,23.50
2017,05,27,14,36,23.50
2017,05,27,14,37,23.50
2017,05,27,14,38,23.50
2017,05,27,14,39,23.50
2017,05,27,14,40,23.60
2017,05,27,14,41,23.70
2017,05,27,14,42,23.80
2017,05,27,14,43,23.80
2017,05,27,14,44,23.80
2017,05,27,14,45,23.90
2017,05,27,14,46,23.90
2017,05,27,14,47,24.00
2017,05,27,14,48,24.10
2017,05,27,14,49,24.10
2017,05,27,14,50,24.20
2017,05,27,14,51,24.20
2017,05,27,14,52,24.20
2017,05,27,14,53,24.30
2017,05,27,14,54,24.30
2017,05,27,14,55,24.30
2017,05,27,14,56,24.30
2017,05,27,14,57,24.30
2017,05,27,14,58,24.30
2017,05,27,14,59,24.30
2017,05,27,15,00,24.30
2017,05,27,15,01,24.30
2017,05,27,15,02,24.20
2017,05,27,15,03,24.10
2017,05,27,15,04,24.10
2017,05,27,15,05,24.10
2017,05,27,15,06,24.10
2017,05,27,15,07,24.10
2017,05,27,15,08,24.20
2017,05,27,15,09,24.20
2017,05,27,15,10,24.20
2017,05,27,15,11,24.20
2017,05,27,15,12,24.20
2017,05,27,15,13,24.30
2017,05,27,15,14,24.30
2017,05,27,15,15,24.40
2017,05,27,15,16,24.40
2017,05,27,15,17,24.30
2017,05,27,15,18,24.40
2017,05,27,15,19,24.40
2017,05,27,15,20,24.50
2017,05,27,15,21,24.50
2017,05,27,15,22,24.60
2017,05,27,15,23,24.60
2017,05,27,15,24,24.50
2017,05,27,15,25,24.50
2017,05,27,15,26,24.60
2017,05,27,15,27,24.60
2017,05,27,15,28,24.60
2017,05,27,15,29,24.60
2017,05,27,15,30,24.60
2017,05,27,15,31,24.60
2017,05,27,15,32,24.70
2017,05,27,15,33,24.70
2017,05,27,15,34,24.70
2017,05,27,15,35,24.70
2017,05,27,15,36,24.70
2017,05,27,15,37,24.80
2017,05,27,15,38,24.80
2017,05,27,15,39,24.90
2017,05,27,15,40,24.90
2017,05,27,15,41,24.90
2017,05,27,15,42,24.90
2017,05,27,15,43,24.90
2017,05,27,15,44,24.90
2017,05,27,15,45,25.00
2017,05,27,15,46,25.00
2017,05,27,15,47,25.00
2017,05,27,15,48,25.00
2017,05,27,15,49,25.00
2017,05,27,15,50,25.00
2017,05,27,15,51,25.10
2017,05,27,15,52,25.10
2017,05,27,15,53,25.10
2017,05,27,15,54,25.10
2017,05,27,15,55,25.10
2017,05,27,15,56,25.10
2017,05,27,15,57,25.10
2017,05,27,15,58,25.10
2017,05,27,15,59,25.10
2017,05,27,16,00,25.10
2017,05,27,16,01,25.10
2017,05,27,16,02,25.00
2017,05,27,16,03,25.00
2017,05,27,16,04,25.10
2017,05,27,16,05,25.10
2017,05,27,16,06,25.10
2017,05,27,16,07,25.10
2017,05,27,16,08,25.10
2017,05,27,16,09,25.10
2017,05,27,16,10,25.10
2017,05,27,16,11,25.10
2017,05,27,16,12,25.10
2017,05,27,16,13,25.10
2017,05,27,16,14,25.20
2017,05,27,16,15,25.20
2017,05,27,16,16,25.20
2017,05,27,16,17,25.30
2017,05,27,16,18,25.40
2017,05,27,16,19,25.40
2017,05,27,16,20,25.40
2017,05,27,16,21,25.40
2017,05,27,16,22,25.40
2017,05,27,16,23,25.40
2017,05,27,16,24,25.40
2017,05,27,16,25,25.30
2017,05,27,16,26,25.30
2017,05,27,16,27,25.30
2017,05,27,16,28,25.20
2017,05,27,16,29,25.20
2017,05,27,16,30,25.20
2017,05,27,16,31,25.20
2017,05,27,16,32,25.20
2017,05,27,16,33,25.20
2017,05,27,16,34,25.30
2017,05,27,16,35,25.50
2017,05,27,16,36,25.60
2017,05,27,16,37,25.70
2017,05,27,16,38,25.70
2017,05,27,16,39,25.80
2017,05,27,16,40,25.90
2017,05,27,16,41,25.90
2017,05,27,16,42,26.00
2017,05,27,16,43,26.00
2017,05,27,16,44,26.10
2017,05,27,16,45,26.20
2017,05,27,16,46,26.20
2017,05,27,16,47,26.20
2017,05,27,16,48,26.30
2017,05,27,16,49,26.30
2017,05,27,16,50,26.40
2017,05,27,16,51,26.40
2017,05,27,16,52,26.50
2017,05,27,16,53,26.50
2017,05,27,16,54,26.50
2017,05,27,16,55,26.50
2017,05,27,16,56,26.60
2017,05,27,16,57,26.60
2017,05,27,16,58,26.70
2017,05,27,16,59,26.70
2017,05,27,17,00,26.70
2017,05,27,17,01,26.80
2017,05,27,17,02,26.80
2017,05,27,17,03,26.80
2017,05,27,17,04,26.80
2017,05,27,17,05,26.70
2017,05,27,17,06,26.70
2017,05,27,17,07,26.80
2017,05,27,17,08,26.80
2017,05,27,17,09,26.80
2017,05,27,17,10,26.80
2017,05,27,17,11,26.80
2017,05,27,17,12,26.80
2017,05,27,17,13,26.80
2017,05,27,17,14,26.80
2017,05,27,17,15,26.80
2017,05,27,17,16,26.80
2017,05,27,17,17,26.90
2017,05,27,17,18,26.90
2017,05,27,17,19,27.00
2017,05,27,17,20,27.00
2017,05,27,17,21,26.90
2017,05,27,17,22,26.90
2017,05,27,17,23,27.00
2017,05,27,17,24,27.10
2017,05,27,17,25,27.10
2017,05,27,17,26,27.20
2017,05,27,17,27,27.20
2017,05,27,17,28,27.20
2017,05,27,17,29,27.20
2017,05,27,17,30,27.20
2017,05,27,17,31,27.10
2017,05,27,17,32,27.10
2017,05,27,17,33,27.20
2017,05,27,17,34,27.20
2017,05,27,17,35,27.20
2017,05,27,17,36,27.20
2017,05,27,17,37,27.10
2017,05,27,17,38,27.10
2017,05,27,17,39,27.10
2017,05,27,17,40,27.00
2017,05,27,17,41,27.00
2017,05,27,17,42,27.10
2017,05,27,17,43,27.10
2017,05,27,17,44,27.10
2017,05,27,17,45,27.10
2017,05,27,17,46,27.10
2017,05,27,17,47,27.10
2017,05,27,17,48,27.10
2017,05,27,17,49,27.10
2017,05,27,17,50,27.20
2017,05,27,17,51,27.20
2017,05,27,17,52,27.10
2017,05,27,17,53,27.10
2017,05,27,17,54,27.00
2017,05,27,17,55,27.00
2017,05,27,17,56,27.00
2017,05,27,17,57,27.00
2017,05,27,17,58,27.00
2017,05,27,17,59,26.90
2017,05,27,18,00,26.90
2017,05,27,18,01,26.90
2017,05,27,18,02,27.00
2017,05,27,18,03,27.00
2017,05,27,18,04,27.00
2017,05,27,18,05,27.00
2017,05,27,18,06,26.90
2017,05,27,18,07,26.90
2017,05,27,18,08,26.90
2017,05,27,18,09,26.90
2017,05,27,18,10,26.90
2017,05,27,18,11,26.90
2017,05,27,18,12,26.90
2017,05,27,18,13,26.90
2017,05,27,18,14,26.80
2017,05,27,18,15,26.70
2017,05,27,18,16,26.70
2017,05,27,18,17,26.70
2017,05,27,18,18,26.60
2017,05,27,18,19,26.60
2017,05,27,18,20,26.60
2017,05,27,18,21,26.60
2017,05,27,18,22,26.60
2017,05,27,18,23,26.50
2017,05,27,18,24,26.50
2017,05,27,18,25,26.40
2017,05,27,18,26,26.40
2017,05,27,18,27,26.40
2017,05,27,18,28,26.40
2017,05,27,18,29,26.40
2017,05,27,18,30,26.40
2017,05,27,18,31,26.40
2017,05,27,18,32,26.40
2017,05,27,18,33,26.40
2017,05,27,18,34,26.40
2017,05,27,18,35,26.40
2017,05,27,18,36,26.40
2017,05,27,18,37,26.40
2017,05,27,18,38,26.40
2017,05,27,18,39,26.40
2017,05,27,18,40,26.40
2017,05,27,18,41,26.50
2017,05,27,18,42,26.50
2017,05,27,18,43,26.50
2017,05,27,18,44,26.50
2017,05,27,18,45,26.50
2017,05,27,18,46,26.40
2017,05,27,18,47,26.50
2017,05,27,18,48,26.50
2017,05,27,18,49,26.40
2017,05,27,18,50,26.30
2017,05,27,18,51,26.30
2017,05,27,18,52,26.20
2017,05,27,18,53,26.20
2017,05,27,18,54,26.10
2017,05,27,18,55,26.00
2017,05,27,18,56,25.90
2017,05,27,18,57,25.80
2017,05,27,18,58,25.70
2017,05,27,18,59,25.70
2017,05,27,19,00,25.70
2017,05,27,19,01,25.70
2017,05,27,19,02,25.70
2017,05,27,19,03,25.70
2017,05,27,19,04,25.60
2017,05,27,19,05,25.60
2017,05,27,19,06,25.60
2017,05,27,19,07,25.60
2017,05,27,19,08,25.60
2017,05,27,19,09,25.50
2017,05,27,19,10,25.50
2017,05,27,19,11,25.50
2017,05,27,19,12,25.40
2017,05,27,19,13,25.40
2017,05,27,19,14,25.40
2017,05,27,19,15,25.30
2017,05,27,19,16,25.30
2017,05,27,19,17,25.30
2017,05,27,19,18,25.20
2017,05,27,19,19,25.20
2017,05,27,19,20,25.20
2017,05,27,19,21,25.20
2017,05,27,19,22,25.20
2017,05,27,19,23,25.20
2017,05,27,19,24,25.20
2017,05,27,19,25,25.20
2017,05,27,19,26,25.20
2017,05,27,19,27,25.20
2017,05,27,19,28,25.20
2017,05,27,19,29,25.20
2017,05,27,19,30,25.20
2017,05,27,19,31,25.20
2017,05,27,19,32,25.20
2017,05,27,19,33,25.10
2017,05,27,19,34,25.10
2017,05,27,19,35,25.10
2017,05,27,19,36,25.10
2017,05,27,19,37,25.00
2017,05,27,19,38,25.00
2017,05,27,19,39,25.00
2017,05,27,19,40,25.00
2017,05,27,19,41,25.00
2017,05,27,19,42,25.00
2017,05,27,19,43,25.00
2017,05,27,19,44,25.00
2017,05,27,19,45,25.10
2017,05,27,19,46,25.10
2017,05,27,19,47,25.00
2017,05,27,19,48,25.00
2017,05,27,19,49,25.00
2017,05,27,19,50,24.90
2017,05,27,19,51,24.90
2017,05,27,19,52,24.90
2017,05,27,19,53,24.90
2017,05,27,19,54,24.90
2017,05,27,19,55,24.90
2017,05,27,19,56,24.90
2017,05,27,19,57,24.90
2017,05,27,19,58,24.90
2017,05,27,19,59,24.90
2017,05,27,20,00,24.80
2017,05,27,20,01,24.80
2017,05,27,20,02,24.80
2017,05,27,20,03,24.80
2017,05,27,20,04,24.80
2017,05,27,20,05,24.80
2017,05,27,20,06,24.80
2017,05,27,20,07,24.70
2017,05,27,20,08,24.70
2017,05,27,20,09,24.70
2017,05,27,20,10,24.70
2017,05,27,20,11,24.60
2017,05,27,20,12,24.60
2017,05,27,20,13,24.60
2017,05,27,20,14,24.60
2017,05,27,20,15,24.60
2017,05,27,20,16,24.60
2017,05,27,20,17,24.60
2017,05,27,20,18,24.60
2017,05,27,20,19,24.60
2017,05,27,20,20,24.60
2017,05,27,20,21,24.60
2017,05,27,20,22,24.50
2017,05,27,20,23,24.50
2017,05,27,20,24,24.40
2017,05,27,20,25,24.40
2017,05,27,20,26,24.40
2017,05,27,20,27,24.40
2017,05,27,20,28,24.30
2017,05,27,20,29,24.30
2017,05,27,20,30,24.30
2017,05,27,20,31,24.30
2017,05,27,20,32,24.20
2017,05,27,20,33,24.20
2017,05,27,20,34,24.20
2017,05,27,20,35,24.10
2017,05,27,20,36,24.10
2017,05,27,20,37,24.10
2017,05,27,20,38,24.00
2017,05,27,20,39,24.00
2017,05,27,20,40,23.90
2017,05,27,20,41,23.90
2017,05,27,20,42,23.80
2017,05,27,20,43,23.80
2017,05,27,20,44,23.80
2017,05,27,20,45,23.80
2017,05,27,20,46,23.70
2017,05,27,20,47,23.70
2017,05,27,20,48,23.70
2017,05,27,20,49,23.60
2017,05,27,20,50,23.60
2017,05,27,20,51,23.50
2017,05,27,20,52,23.50
2017,05,27,20,53,23.40
2017,05,27,20,54,23.40
2017,05,27,20,55,23.30
2017,05,27,20,56,23.30
2017,05,27,20,57,23.20
2017,05,27,20,58,23.20
2017,05,27,20,59,23.20
2017,05,27,21,00,23.10
2017,05,27,21,01,23.10
2017,05,27,21,02,23.00
2017,05,27,21,03,22.90
2017,05,27,21,04,22.90
2017,05,27,21,05,22.80
2017,05,27,21,06,22.80
2017,05,27,21,07,22.80
2017,05,27,21,08,22.70
2017,05,27,21,09,22.70
2017,05,27,21,10,22.60
2017,05,27,21,11,22.60
2017,05,27,21,12,22.60
2017,05,27,21,13,22.50
2017,05,27,21,14,22.50
2017,05,27,21,15,22.40
2017,05,27,21,16,22.40
2017,05,27,21,17,22.40
2017,05,27,21,18,22.30
2017,05,27,21,19,22.30
2017,05,27,21,20,22.30
2017,05,27,21,21,22.30
2017,05,27,21,22,22.20
2017,05,27,21,23,22.20
2017,05,27,21,24,22.20
2017,05,27,21,25,22.20
2017,05,27,21,26,22.10
2017,05,27,21,27,22.10
2017,05,27,21,28,22.10
2017,05,27,21,29,22.00
2017,05,27,21,30,22.00
2017,05,27,21,31,21.90
2017,05,27,21,32,21.90
2017,05,27,21,33,21.90
2017,05,27,21,34,21.80
2017,05,27,21,35,21.80
2017,05,27,21,36,21.80
2017,05,27,21,37,21.70
2017,05,27,21,38,21.60
2017,05,27,21,39,21.50
2017,05,27,21,40,21.50
2017,05,27,21,41,21.40
2017,05,27,21,42,21.30
2017,05,27,21,43,21.30
2017,05,27,21,44,21.20
2017,05,27,21,45,21.20
2017,05,27,21,46,21.10
2017,05,27,21,47,21.10
2017,05,27,21,48,21.00
2017,05,27,21,49,21.00
2017,05,27,21,50,20.90
2017,05,27,21,51,20.90
2017,05,27,21,52,20.80
2017,05,27,21,53,20.80
2017,05,27,21,54,20.80
2017,05,27,21,55,20.70
2017,05,27,21,56,20.70
2017,05,27,21,57,20.60
2017,05,27,21,58,20.60
2017,05,27,21,59,20.50
2017,05,27,22,00,20.50
2017,05,27,22,01,20.40
2017,05,27,22,02,20.40
2017,05,27,22,03,20.30
2017,05,27,22,04,20.30
2017,05,27,22,05,20.20
2017,05,27,22,06,20.20
2017,05,27,22,07,20.10
2017,05,27,22,08,20.10
2017,05,27,22,09,20.10
2017,05,27,22,10,20.00
2017,05,27,22,11,19.90
2017,05,27,22,12,19.90
2017,05,27,22,13,19.80
2017,05,27,22,14,19.80
2017,05,27,22,15,19.70
2017,05,27,22,16,19.70
2017,05,27,22,17,19.60
2017,05,27,22,18,19.50
2017,05,27,22,19,19.50
2017,05,27,22,20,19.40
2017,05,27,22,21,19.30
2017,05,27,22,22,19.30
2017,05,27,22,23,19.30
2017,05,27,22,24,19.20
2017,05,27,22,25,19.20
2017,05,27,22,26,19.20
2017,05,27,22,27,19.10
2017,05,27,22,28,19.10
2017,05,27,22,29,19.10
2017,05,27,22,30,19.10
2017,05,27,22,31,19.00
2017,05,27,22,32,19.00
2017,05,27,22,33,18.90
2017,05,27,22,34,18.90
2017,05,27,22,35,18.90
2017,05,27,22,36,18.80
2017,05,27,22,37,18.80
2017,05,27,22,38,18.80
2017,05,27,22,39,18.70
2017,05,27,22,40,18.70
2017,05,27,22,41,18.70
2017,05,27,22,42,18.70
2017,05,27,22,43,18.60
2017,05,27,22,44,18.60
2017,05,27,22,45,18.60
2017,05,27,22,46,18.60
2017,05,27,22,47,18.50
2017,05,27,22,48,18.50
2017,05,27,22,49,18.40
2017,05,27,22,50,18.40
2017,05,27,22,51,18.40
2017,05,27,22,52,18.30
2017,05,27,22,53,18.30
2017,05,27,22,54,18.20
2017,05,27,22,55,18.20
2017,05,27,22,56,18.20
2017,05,27,22,57,18.10
2017,05,27,22,58,18.10
2017,05,27,22,59,18.00
2017,05,27,23,00,17.90
2017,05,27,23,01,17.90
2017,05,27,23,02,17.80
2017,05,27,23,03,17.80
2017,05,27,23,04,17.70
2017,05,27,23,05,17.70
2017,05,27,23,06,17.60
2017,05,27,23,07,17.60
2017,05,27,23,08,17.50
2017,05,27,23,09,17.50
2017,05,27,23,10,17.40
2017,05,27,23,11,17.40
2017,05,27,23,12,17.40
2017,05,27,23,13,17.30
2017,05,27,23,14,17.30
2017,05,27,23,15,17.30
2017,05,27,23,16,17.30
2017,05,27,23,17,17.20
2017,05,27,23,18,17.20
2017,05,27,23,19,17.10
2017,05,27,23,20,17.10
2017,05,27,23,21,17.00
2017,05,27,23,22,17.00
2017,05,27,23,23,16.90
2017,05,27,23,24,16.90
2017,05,27,23,25,16.90
2017,05,27,23,26,16.80
2017,05,27,23,27,16.80
2017,05,27,23,28,16.70
2017,05,27,23,29,16.70
2017,05,27,23,30,16.70
2017,05,27,23,31,16.60
2017,05,27,23,32,16.60
2017,05,27,23,33,16.60
2017,05,27,23,34,16.60
2017,05,27,23,35,16.60
2017,05,27,23,36,16.60
2017,05,27,23,37,16.50
2017,05,27,23,38,16.50
2017,05,27,23,39,16.50
2017,05,27,23,40,16.50
2017,05,27,23,41,16.40
2017,05,27,23,42,16.40
2017,05,27,23,43,16.40
2017,05,27,23,44,16.40
2017,05,27,23,45,16.40
2017,05,27,23,46,16.40
2017,05,27,23,47,16.40
2017,05,27,23,48,16.40
2017,05,27,23,49,16.40
2017,05,27,23,50,16.40
2017,05,27,23,51,16.40
2017,05,27,23,52,16.30
2017,05,27,23,53,16.30
2017,05,27,23,54,16.30
2017,05,27,23,55,16.30
2017,05,27,23,56,16.30
2017,05,27,23,57,16.20
2017,05,27,23,58,16.20
2017,05,27,23,59,16.20
